Flippin, AR

9:28 PM CDT on June 28, 2017 (GMT -0500)
Marion County Regional

Weather History for KFLP - October, 2013

Change the Weather History Date:

Thursday, October 17, 2013

  Actual Average Record
Temperature  
Mean Temperature 54 °F -  
Max Temperature 64 °F 69 °F 87 °F (2016)
Min Temperature 44 °F 46 °F 28 °F (2001)
Degree Days  
Heating Degree Days 11    
Growing Degree Days 4 (Base 50)    
Moisture  
Dew Point 39 °F    
Average Humidity 59    
Maximum Humidity 76    
Minimum Humidity 37    
Precipitation  
Precipitation 0.00 in - - ()
Sea Level Pressure  
Sea Level Pressure 30.01 in    
Wind  
Wind Speed 3 mph (West)    
Max Wind Speed 10 mph    
Max Gust Speed -    
Visibility 10 miles    
Events      
Averages and records for this station are not official NWS values.
T = Trace of Precipitation, MM = Missing Value Source: NWS Daily Summary

Daily Weather History Graph

Daily Weather History Graph

Search for Another Location

Airport or City:

Trip Planner

Search our weather history database for the weather conditions in past years. The results will help you decide how hot, cold, wet, or windy it might be!

Date:

Astronomy

Oct. 17, 2013 Rise Set
Actual Time 7:19 AM CDT 6:31 PM CDT
Civil Twilight 6:53 AM CDT 6:57 PM CDT
Nautical Twilight 6:23 AM CDT 7:27 PM CDT
Astronomical Twilight 5:53 AM CDT 7:56 PM CDT
Moon 5:44 PM CDT (10/17) 5:53 AM CDT (10/17)
Length of Visible Light 12h 03m
Length of Day
11h 11m
Waxing Gibbous, 98% of the Moon is Illuminated
Oct 17
Waxing Gibbous
Oct 18
Full
Oct 26
Last Quarter
Nov 3
New
Nov 9
First Quarter

Hourly Weather History & Observations

Time (CDT) Temp. Windchill Dew Point Humidity Pressure Visibility Wind Dir Wind Speed Gust Speed Precip Events Conditions
12:15 AM 51.8 °F - 37.4 °F 58% 30.02 in 10.0 mi NW 3.5 mph - N/A   Mostly Cloudy
12:35 AM 51.8 °F - 39.2 °F 62% 30.03 in 10.0 mi Calm Calm - N/A   Overcast
12:55 AM 53.6 °F - 39.2 °F 58% 30.01 in 10.0 mi Calm Calm - N/A   Overcast
1:15 AM 51.8 °F - 39.2 °F 62% 30.02 in 10.0 mi Calm Calm - N/A   Mostly Cloudy
1:35 AM 51.8 °F - 41.0 °F 67% 30.01 in 10.0 mi Calm Calm - N/A   Overcast
1:55 AM 51.8 °F - 39.2 °F 62% 30.00 in 10.0 mi Calm Calm - N/A   Overcast
2:15 AM 51.8 °F - 41.0 °F 67% 30.02 in 10.0 mi SW 3.5 mph - N/A   Mostly Cloudy
2:35 AM 51.8 °F - 41.0 °F 67% 30.01 in 10.0 mi Calm Calm - N/A   Mostly Cloudy
2:55 AM 51.8 °F - 39.2 °F 62% 30.00 in 10.0 mi WSW 3.5 mph - N/A   Scattered Clouds
3:15 AM 50.0 °F - 39.2 °F 66% 30.00 in 10.0 mi SW 4.6 mph - N/A   Clear
3:35 AM 50.0 °F - 39.2 °F 66% 30.01 in 10.0 mi West 4.6 mph - N/A   Clear
3:55 AM 48.2 °F - 39.2 °F 71% 30.00 in 10.0 mi Calm Calm - N/A   Clear
4:15 AM 48.2 °F - 39.2 °F 71% 30.01 in 10.0 mi Calm Calm - N/A   Mostly Cloudy
4:35 AM 48.2 °F - 39.2 °F 71% 30.02 in 10.0 mi WNW 3.5 mph - N/A   Overcast
4:55 AM 48.2 °F - 37.4 °F 66% 30.02 in 10.0 mi NW 3.5 mph - N/A   Scattered Clouds
5:15 AM 48.2 °F - 37.4 °F 66% 30.02 in 10.0 mi NW 5.8 mph - N/A   Clear
5:35 AM 48.2 °F - 37.4 °F 66% 30.02 in 10.0 mi NW 3.5 mph - N/A   Clear
5:55 AM 46.4 °F - 37.4 °F 71% 30.02 in 10.0 mi Calm Calm - N/A   Clear
6:15 AM 46.4 °F 45.2 °F 37.4 °F 71% 30.02 in 10.0 mi NW 3.5 mph - N/A   Clear
6:35 AM 46.4 °F 43.5 °F 37.4 °F 71% 30.02 in 10.0 mi WNW 5.8 mph - N/A   Clear
6:55 AM 46.4 °F 44.3 °F 37.4 °F 71% 30.02 in 10.0 mi WNW 4.6 mph - N/A   Clear
7:15 AM 44.6 °F 43.1 °F 37.4 °F 76% 30.03 in 10.0 mi WNW 3.5 mph - N/A   Clear
7:35 AM 44.6 °F 43.1 °F 37.4 °F 76% 30.04 in 10.0 mi WSW 3.5 mph - N/A   Clear
7:55 AM 46.4 °F 45.2 °F 37.4 °F 71% 30.04 in 10.0 mi West 3.5 mph - N/A   Clear
8:15 AM 46.4 °F - 37.4 °F 71% 30.04 in 10.0 mi Calm Calm - N/A   Clear
8:35 AM 48.2 °F - 39.2 °F 71% 30.04 in 10.0 mi WSW 3.5 mph - N/A   Clear
8:55 AM 50.0 °F - 39.2 °F 66% 30.05 in 10.0 mi WSW 4.6 mph - N/A   Clear
9:15 AM 51.8 °F - 39.2 °F 62% 30.05 in 10.0 mi SW 3.5 mph - N/A   Clear
9:35 AM 51.8 °F - 39.2 °F 62% 30.05 in 10.0 mi WSW 5.8 mph - N/A   Clear
9:55 AM 53.6 °F - 39.2 °F 58% 30.05 in 10.0 mi WSW 6.9 mph - N/A   Clear
10:15 AM 55.4 °F - 39.2 °F 54% 30.05 in 10.0 mi WSW 6.9 mph - N/A   Clear
10:35 AM 55.4 °F - 41.0 °F 58% 30.05 in 10.0 mi SSW 4.6 mph - N/A   Clear
10:55 AM 57.2 °F - 39.2 °F 51% 30.05 in 10.0 mi SSW 6.9 mph - N/A   Clear
11:15 AM 57.2 °F - 41.0 °F 55% 30.05 in 10.0 mi SW 8.1 mph - N/A   Scattered Clouds
11:35 AM 59.0 °F - 41.0 °F 51% 30.05 in 10.0 mi SW 4.6 mph - N/A   Mostly Cloudy
11:55 AM 60.8 °F - 39.2 °F 45% 30.04 in 10.0 mi WNW 10.4 mph - N/A   Scattered Clouds
12:15 PM 60.8 °F - 39.2 °F 45% 30.03 in 10.0 mi West 6.9 mph - N/A   Clear
12:35 PM 62.6 °F - 39.2 °F 42% 30.03 in 10.0 mi WNW 10.4 mph - N/A   Clear
12:55 PM 62.6 °F - 39.2 °F 42% 30.03 in 10.0 mi West 8.1 mph - N/A   Clear
1:15 PM 62.6 °F - 39.2 °F 42% 30.02 in 10.0 mi WNW 8.1 mph - N/A   Clear
1:35 PM 62.6 °F - 39.2 °F 42% 30.01 in 10.0 mi NW 8.1 mph - N/A   Clear
1:55 PM 64.4 °F - 39.2 °F 40% 30.00 in 10.0 mi WNW 9.2 mph - N/A   Clear
2:15 PM 64.4 °F - 39.2 °F 40% 30.00 in 10.0 mi West 8.1 mph - N/A   Clear
2:35 PM 64.4 °F - 39.2 °F 40% 30.00 in 10.0 mi NW 5.8 mph - N/A   Clear
2:55 PM 64.4 °F - 39.2 °F 40% 29.99 in 10.0 mi WNW 8.1 mph - N/A   Clear
3:15 PM 64.4 °F - 39.2 °F 40% 29.99 in 10.0 mi WNW 6.9 mph - N/A   Clear
3:35 PM 64.4 °F - 39.2 °F 40% 29.98 in 10.0 mi NW 5.8 mph - N/A   Clear
3:55 PM 64.4 °F - 37.4 °F 37% 29.98 in 10.0 mi WSW 5.8 mph - N/A   Partly Cloudy
4:15 PM 64.4 °F - 39.2 °F 40% 29.98 in 10.0 mi NW 3.5 mph - N/A   Clear
4:35 PM 64.4 °F - 39.2 °F 40% 29.98 in 10.0 mi Calm Calm - N/A   Clear
4:55 PM 64.4 °F - 39.2 °F 40% 29.98 in 10.0 mi WNW 4.6 mph - N/A   Clear
5:15 PM 64.4 °F - 39.2 °F 40% 29.98 in 10.0 mi NW 6.9 mph - N/A   Clear
5:35 PM 64.4 °F - 39.2 °F 40% 29.98 in 10.0 mi Calm Calm - N/A   Clear
5:55 PM 62.6 °F - 39.2 °F 42% 29.97 in 10.0 mi North 3.5 mph - N/A   Clear
6:15 PM 62.6 °F - 39.2 °F 42% 29.98 in 10.0 mi NNE 3.5 mph - N/A   Clear
6:35 PM 59.0 °F - 41.0 °F 51% 29.98 in 10.0 mi NNE 3.5 mph - N/A   Clear
6:55 PM 55.4 °F - 41.0 °F 58% 29.98 in 10.0 mi Calm Calm - N/A   Clear
7:15 PM 53.6 °F - 41.0 °F 62% 29.99 in 10.0 mi Calm Calm - N/A   Clear
7:35 PM 53.6 °F - 39.2 °F 58% 29.99 in 10.0 mi Calm Calm - N/A   Clear
7:55 PM 51.8 °F - 41.0 °F 67% 30.00 in 10.0 mi Calm Calm - N/A   Clear
8:15 PM 51.8 °F - 41.0 °F 67% 30.00 in 10.0 mi Calm Calm - N/A   Clear
8:35 PM 50.0 °F - 39.2 °F 66% 30.00 in 10.0 mi Calm Calm - N/A   Clear
8:55 PM 50.0 °F - 39.2 °F 66% 30.00 in 10.0 mi Calm Calm - N/A   Clear
9:15 PM 48.2 °F - 39.2 °F 71% 30.00 in 10.0 mi Calm Calm - N/A   Clear
9:35 PM 48.2 °F - 39.2 °F 71% 30.01 in 10.0 mi Calm Calm - N/A   Clear
9:55 PM 48.2 °F - 39.2 °F 71% 30.01 in 10.0 mi Calm Calm - N/A   Clear
10:15 PM 48.2 °F - 39.2 °F 71% 30.02 in 10.0 mi Calm Calm - N/A   Clear
10:35 PM 48.2 °F - 39.2 °F 71% 30.02 in 10.0 mi Calm Calm - N/A   Clear
10:55 PM 46.4 °F - 37.4 °F 71% 30.02 in 10.0 mi Calm Calm - N/A   Clear
11:15 PM 46.4 °F - 37.4 °F 71% 30.02 in 10.0 mi Calm Calm - N/A   Clear
11:35 PM 46.4 °F - 37.4 °F 71% 30.02 in 10.0 mi Calm Calm - N/A   Clear
11:55 PM 46.4 °F - 37.4 °F 71% 30.02 in 10.0 mi Calm Calm - N/A   Clear